Time,TemperatureF,DewpointF,PressureIn,WindDirection,WindDirectionDegrees,WindSpeedMPH,WindSpeedGustMPH,Humidity,HourlyPrecipIn,Conditions,Clouds,dailyrainin,SolarRadiationWatts/m^2,SoftwareType,DateUTC
2013-10-24 00:00:00,35.0,33.0,-100.00,SW,225,3.0,-999.0,93,-99.99,,,-99.99,0.000000,,2013-10-24 04:00:00,
2013-10-24 00:44:00,35.0,33.0,-100.00,SW,225,3.0,-999.0,93,-99.99,,,-99.99,0.000000,,2013-10-24 04:44:00,
2013-10-24 00:54:00,35.0,33.0,-100.00,SW,225,3.0,-999.0,93,-99.99,,,-99.99,0.000000,,2013-10-24 04:54:00,
2013-10-24 01:00:00,34.0,33.0,-100.00,SW,225,3.0,-999.0,93,-99.99,,,-99.99,0.000000,,2013-10-24 05:00:00,
2013-10-24 01:43:00,34.0,33.0,-100.00,SW,225,3.0,-999.0,93,-99.99,,,-99.99,0.000000,,2013-10-24 05:43:00,
2013-10-24 01:53:00,34.0,33.0,-100.00,SW,225,3.0,-999.0,93,-99.99,,,-99.99,0.000000,,2013-10-24 05:53:00,
2013-10-24 02:00:00,35.0,33.0,-100.00,WSW,247,3.0,-999.0,93,-99.99,,,-99.99,0.000000,,2013-10-24 06:00:00,
2013-10-24 02:42:00,35.0,33.0,-100.00,WSW,247,3.0,-999.0,93,-99.99,,,-99.99,0.000000,,2013-10-24 06:42:00,
2013-10-24 02:52:00,35.0,33.0,-100.00,WSW,247,3.0,-999.0,93,-99.99,,,-99.99,0.000000,,2013-10-24 06:52:00,
2013-10-24 03:00:00,34.0,33.0,-100.00,SW,225,2.0,-999.0,96,0.01,,,-99.99,0.000000,,2013-10-24 07:00:00,
2013-10-24 03:42:00,34.0,33.0,-100.00,SW,225,2.0,-999.0,96,0.01,,,-99.99,0.000000,,2013-10-24 07:42:00,
2013-10-24 03:53:00,34.0,33.0,-100.00,SW,225,2.0,-999.0,96,0.01,,,-99.99,0.000000,,2013-10-24 07:53:00,
2013-10-24 04:00:00,34.0,34.0,-100.00,SW,225,1.0,-999.0,97,0.01,,,-99.99,0.000000,,2013-10-24 08:00:00,
2013-10-24 04:42:00,34.0,34.0,-100.00,SW,225,1.0,-999.0,97,0.01,,,-99.99,0.000000,,2013-10-24 08:42:00,
2013-10-24 04:53:00,34.0,34.0,-100.00,SW,225,1.0,-999.0,97,0.01,,,-99.99,0.000000,,2013-10-24 08:53:00,
2013-10-24 05:00:00,34.0,33.0,-100.00,WSW,247,2.0,-999.0,97,-99.99,,,-99.99,0.000000,,2013-10-24 09:00:00,
2013-10-24 05:43:00,34.0,33.0,-100.00,WSW,247,2.0,-999.0,97,-99.99,,,-99.99,0.000000,,2013-10-24 09:43:00,
2013-10-24 05:53:00,34.0,33.0,-100.00,WSW,247,2.0,-999.0,97,-99.99,,,-99.99,0.000000,,2013-10-24 09:53:00,
2013-10-24 06:00:00,34.0,33.0,-100.00,WSW,247,3.0,-999.0,96,-99.99,,,-99.99,0.000000,,2013-10-24 10:00:00,
2013-10-24 06:43:00,34.0,33.0,-100.00,WSW,247,3.0,-999.0,96,-99.99,,,-99.99,0.000000,,2013-10-24 10:43:00,
2013-10-24 06:53:00,34.0,33.0,-100.00,WSW,247,3.0,-999.0,96,-99.99,,,-99.99,0.000000,,2013-10-24 10:53:00,
2013-10-24 07:00:00,34.0,33.0,-100.00,WSW,247,2.0,-999.0,95,-99.99,,,-99.99,0.000000,,2013-10-24 11:00:00,
2013-10-24 07:43:00,34.0,33.0,-100.00,WSW,247,2.0,-999.0,95,-99.99,,,-99.99,0.000000,,2013-10-24 11:43:00,
2013-10-24 07:53:00,34.0,33.0,-100.00,WSW,247,2.0,-999.0,95,-99.99,,,-99.99,0.000000,,2013-10-24 11:53:00,
2013-10-24 08:00:00,34.0,33.0,-100.00,West,270,3.0,-999.0,94,-99.99,,,-99.99,0.000000,,2013-10-24 12:00:00,
2013-10-24 08:42:00,34.0,33.0,-100.00,West,270,3.0,-999.0,94,-99.99,,,-99.99,0.000000,,2013-10-24 12:42:00,
2013-10-24 08:52:00,34.0,33.0,-100.00,West,270,3.0,-999.0,94,-99.99,,,-99.99,0.000000,,2013-10-24 12:52:00,
2013-10-24 09:00:00,35.0,33.0,-100.00,WSW,247,2.0,-999.0,93,-99.99,,,-99.99,9.280000,,2013-10-24 13:00:00,
2013-10-24 09:42:00,35.0,33.0,-100.00,WSW,247,2.0,-999.0,93,-99.99,,,-99.99,9.280000,,2013-10-24 13:42:00,
2013-10-24 09:52:00,35.0,33.0,-100.00,WSW,247,2.0,-999.0,93,-99.99,,,-99.99,9.280000,,2013-10-24 13:52:00,
2013-10-24 10:00:00,35.0,34.0,-100.00,West,270,3.0,-999.0,94,-99.99,,,-99.99,66.120003,,2013-10-24 14:00:00,
2013-10-24 10:42:00,35.0,34.0,-100.00,West,270,3.0,-999.0,94,-99.99,,,-99.99,66.120003,,2013-10-24 14:42:00,
2013-10-24 10:52:00,35.0,34.0,-100.00,West,270,3.0,-999.0,94,-99.99,,,-99.99,66.120003,,2013-10-24 14:52:00,
2013-10-24 11:00:00,34.0,34.0,-100.00,West,270,4.0,-999.0,96,0.01,,,-99.99,93.959999,,2013-10-24 15:00:00,
2013-10-24 11:43:00,34.0,34.0,-100.00,West,270,4.0,-999.0,96,0.01,,,-99.99,93.959999,,2013-10-24 15:43:00,
2013-10-24 11:53:00,34.0,34.0,-100.00,West,270,4.0,-999.0,96,0.01,,,-99.99,93.959999,,2013-10-24 15:53:00,
2013-10-24 12:00:00,35.0,35.0,-100.00,West,270,5.0,-999.0,96,0.01,,,-99.99,116.000000,,2013-10-24 16:00:00,
2013-10-24 12:43:00,35.0,35.0,-100.00,West,270,5.0,-999.0,96,0.01,,,-99.99,116.000000,,2013-10-24 16:43:00,
2013-10-24 12:53:00,35.0,35.0,-100.00,West,270,5.0,-999.0,96,0.01,,,-99.99,116.000000,,2013-10-24 16:53:00,
2013-10-24 13:00:00,36.0,35.0,-100.00,WNW,292,4.0,-999.0,96,0.01,,,-99.99,118.320000,,2013-10-24 17:00:00,
2013-10-24 13:43:00,36.0,35.0,-100.00,WNW,292,4.0,-999.0,96,0.01,,,-99.99,118.320000,,2013-10-24 17:43:00,
2013-10-24 13:52:00,36.0,35.0,-100.00,WNW,292,4.0,-999.0,96,0.01,,,-99.99,118.320000,,2013-10-24 17:52:00,
2013-10-24 14:00:00,39.0,37.0,-100.00,SSW,202,3.0,-999.0,92,-99.99,,,-99.99,321.320007,,2013-10-24 18:00:00,
2013-10-24 14:42:00,39.0,37.0,-100.00,SSW,202,3.0,-999.0,92,-99.99,,,-99.99,321.320007,,2013-10-24 18:42:00,
2013-10-24 14:53:00,39.0,37.0,-100.00,SSW,202,3.0,-999.0,92,-99.99,,,-99.99,321.320007,,2013-10-24 18:53:00,
2013-10-24 15:00:00,40.0,36.0,-100.00,WSW,247,4.0,-999.0,83,0.01,,,-99.99,220.399994,,2013-10-24 19:00:00,
2013-10-24 15:43:00,40.0,36.0,-100.00,WSW,247,4.0,-999.0,83,0.01,,,-99.99,220.399994,,2013-10-24 19:43:00,
2013-10-24 15:53:00,40.0,36.0,-100.00,WSW,247,4.0,-999.0,83,0.01,,,-99.99,220.399994,,2013-10-24 19:53:00,
2013-10-24 16:00:00,38.0,36.0,-100.00,West,270,6.0,-999.0,91,-99.99,,,-99.99,178.639999,,2013-10-24 20:00:00,
2013-10-24 16:43:00,38.0,36.0,-100.00,West,270,6.0,-999.0,91,-99.99,,,-99.99,178.639999,,2013-10-24 20:43:00,
2013-10-24 16:53:00,38.0,36.0,-100.00,West,270,6.0,-999.0,91,-99.99,,,-99.99,178.639999,,2013-10-24 20:53:00,
2013-10-24 17:00:00,38.0,36.0,-100.00,West,270,6.0,-999.0,90,-99.99,,,-99.99,206.479996,,2013-10-24 21:00:00,
2013-10-24 17:43:00,38.0,36.0,-100.00,West,270,6.0,-999.0,90,-99.99,,,-99.99,206.479996,,2013-10-24 21:43:00,
2013-10-24 17:54:00,38.0,36.0,-100.00,West,270,6.0,-999.0,90,-99.99,,,-99.99,206.479996,,2013-10-24 21:54:00,
2013-10-24 18:00:00,38.0,35.0,-100.00,West,270,7.0,-999.0,86,-99.99,,,-99.99,85.839996,,2013-10-24 22:00:00,
2013-10-24 18:43:00,38.0,35.0,-100.00,West,270,7.0,-999.0,86,-99.99,,,-99.99,85.839996,,2013-10-24 22:43:00,
2013-10-24 18:55:00,38.0,35.0,-100.00,West,270,7.0,-999.0,86,-99.99,,,-99.99,85.839996,,2013-10-24 22:55:00,
2013-10-24 19:00:00,37.0,34.0,-100.00,West,270,3.0,-999.0,90,-99.99,,,-99.99,11.600000,,2013-10-24 23:00:00,
2013-10-24 19:43:00,37.0,34.0,-100.00,West,270,3.0,-999.0,90,-99.99,,,-99.99,11.600000,,2013-10-24 23:43:00,
2013-10-24 19:53:00,37.0,34.0,-100.00,West,270,3.0,-999.0,90,-99.99,,,-99.99,11.600000,,2013-10-24 23:53:00,
2013-10-24 20:00:00,36.0,34.0,-100.00,SE,135,3.0,-999.0,93,-99.99,,,-99.99,0.000000,,2013-10-25 00:00:00,
2013-10-24 20:42:00,36.0,34.0,-100.00,SE,135,3.0,-999.0,93,-99.99,,,-99.99,0.000000,,2013-10-25 00:42:00,
2013-10-24 20:52:00,36.0,34.0,-100.00,SE,135,3.0,-999.0,93,-99.99,,,-99.99,0.000000,,2013-10-25 00:52:00,
2013-10-24 21:00:00,35.0,34.0,-100.00,South,180,4.0,-999.0,95,-99.99,,,-99.99,0.000000,,2013-10-25 01:00:00,
2013-10-24 21:43:00,35.0,34.0,-100.00,South,180,4.0,-999.0,95,-99.99,,,-99.99,0.000000,,2013-10-25 01:43:00,
2013-10-24 21:54:00,35.0,34.0,-100.00,South,180,4.0,-999.0,95,-99.99,,,-99.99,0.000000,,2013-10-25 01:54:00,
2013-10-24 22:00:00,35.0,34.0,-100.00,West,270,3.0,-999.0,95,-99.99,,,-99.99,0.000000,,2013-10-25 02:00:00,
2013-10-24 22:43:00,35.0,34.0,-100.00,West,270,3.0,-999.0,95,-99.99,,,-99.99,0.000000,,2013-10-25 02:43:00,
2013-10-24 22:52:00,35.0,34.0,-100.00,West,270,3.0,-999.0,95,-99.99,,,-99.99,0.000000,,2013-10-25 02:52:00,
2013-10-24 23:00:00,34.0,33.0,-100.00,WNW,292,4.0,-999.0,95,0.01,,,-99.99,0.000000,,2013-10-25 03:00:00,
2013-10-24 23:44:00,34.0,33.0,-100.00,WNW,292,4.0,-999.0,95,0.01,,,-99.99,0.000000,,2013-10-25 03:44:00,
2013-10-24 23:55:00,34.0,33.0,-100.00,WNW,292,4.0,-999.0,95,0.01,,,-99.99,0.000000,,2013-10-25 03:55:00,